This is the latest recevied weather packets stored in our database for station/object KD0RII. If no packets are shown the sender has not sent any weather packets the latest 10 day(s).
| Time | Temp. | Humidity | Pressure | Rain* | Wind** | Luminosity | Snow |
|---|---|---|---|---|---|---|---|
| 1777738283 | 15.56° C | 35% | 1023.8 hPa | 0 mm | - | 626 W/m² | - |
| 1777737981 | 15.56° C | 36% | 1024 hPa | 0 mm | - | 611 W/m² | - |
| 1777737679 | 15.56° C | 34% | 1024 hPa | 0 mm | - | 599 W/m² | - |
| 1777737377 | 16.11° C | 36% | 1023.9 hPa | 0 mm | - | 588 W/m² | - |
| 1777737074 | 15.56° C | 34% | 1023.9 hPa | 0 mm | - | 573 W/m² | - |
| 1777736770 | 15° C | 36% | 1024.1 hPa | 0 mm | - | 558 W/m² | - |
| 1777736142 | 15° C | 36% | 1023.8 hPa | 0 mm | - | 532 W/m² | - |
| 1777735834 | 14.44° C | 38% | 1023.9 hPa | 0 mm | - | 519 W/m² | - |
| 1777735531 | 14.44° C | 36% | 1023.8 hPa | 0 mm | - | 505 W/m² | - |
| 1777735228 | 14.44° C | 35% | 1024 hPa | 0 mm | - | 491 W/m² | - |
| 1777734925 | 13.89° C | 38% | 1024.1 hPa | 0 mm | - | 471 W/m² | - |
| 1777734622 | 13.89° C | 38% | 1023.9 hPa | 0 mm | - | 459 W/m² | - |
| 1777734320 | 13.33° C | 36% | 1023.9 hPa | 0 mm | - | 447 W/m² | - |
| 1777734015 | 13.89° C | 35% | 1023.9 hPa | 0 mm | - | 429 W/m² | - |
| 1777733712 | 14.44° C | 35% | 1023.9 hPa | 0 mm | - | 416 W/m² | - |
| 1777733408 | 14.44° C | 41% | 1023.8 hPa | 0 mm | - | 398 W/m² | - |
| 1777733105 | 13.89° C | 43% | 1023.8 hPa | 0 mm | - | 382 W/m² | - |
| 1777732801 | 13.33° C | 44% | 1023.8 hPa | 0 mm | - | 366 W/m² | - |
| 1777732499 | 13.33° C | 44% | 1023.7 hPa | 0 mm | - | 351 W/m² | - |
| 1777732196 | 13.33° C | 43% | 1023.8 hPa | 0 mm | - | 335 W/m² | - |
| 1777731893 | 13.33° C | 46% | 1023.7 hPa | 0 mm | - | 318 W/m² | - |
| 1777731589 | 12.78° C | 46% | 1023.8 hPa | 0 mm | - | 301 W/m² | - |
| 1777731288 | 12.78° C | 46% | 1023.7 hPa | 0 mm | - | 285 W/m² | - |
| 1777730984 | 11.67° C | 50% | 1023.9 hPa | 0 mm | - | 269 W/m² | - |
| 1777730683 | 11.11° C | 53% | 1023.8 hPa | 0 mm | - | 254 W/m² | - |
* Rain latest hour (hover to see other rain measurements)
** Current wind speed in m/s (hover to see current wind gust speed)